| time (UTC) | temp F | wind direction | speed MPH | gust MPH | rain 1hr in | rain 24hr in | rain mn in | humidity % | barometer mb |
| 20260507062506 | 48 | 331 | 0.0 | 3.0 | 0.00 | 0.00 | 0.00 | 87 | 1016.5 |
| 20260507062004 | 47 | 308 | 0.0 | 3.0 | 0.00 | 0.00 | 0.00 | 88 | 1016.4 |
| 20260507061504 | 47 | 307 | 0.0 | 2.0 | 0.00 | 0.00 | 0.00 | 89 | 1016.4 |
| 20260507061003 | 46 | 282 | 1.0 | 2.0 | 0.00 | 0.00 | 0.00 | 90 | 1016.3 |
| 20260507060502 | 46 | 329 | 0.0 | 2.0 | 0.00 | 0.00 | 0.00 | 91 | 1016.3 |
| 20260507060007 | 45 | 320 | 0.0 | 2.0 | 0.00 | 0.00 | 0.00 | 92 | 1016.3 |
| 20260507055502 | 45 | 306 | 0.0 | 0.0 | 0.00 | 0.00 | 0.00 | 92 | 1016.3 |
| 20260507055001 | 45 | 306 | 0.0 | 0.0 | 0.00 | 0.00 | 0.00 | 92 | 1016.2 |
| 20260507054501 | 45 | 302 | 0.0 | 0.0 | 0.00 | 0.00 | 0.00 | 92 | 1016.2 |
| 20260507054100 | 44 | 302 | 0.0 | 0.0 | 0.00 | 0.00 | 0.00 | 92 | 1016.2 |
| 20260507053600 | 44 | 302 | 0.0 | 1.0 | 0.00 | 0.00 | 0.00 | 92 | 1016.1 |
| 20260507053059 | 44 | 302 | 0.0 | 3.0 | 0.00 | 0.00 | 0.00 | 92 | 1016.2 |
| 20260507052600 | 44 | 302 | 0.0 | 3.0 | 0.00 | 0.00 | 0.00 | 92 | 1016.1 |
| 20260507052058 | 44 | 336 | 0.0 | 2.0 | 0.00 | 0.00 | 0.00 | 93 | 1016.0 |
| 20260507051558 | 43 | 11 | 0.0 | 0.0 | 0.00 | 0.00 | 0.00 | 92 | 1016.0 |
| 20260507051059 | 43 | 11 | 0.0 | 0.0 | 0.00 | 0.00 | 0.00 | 92 | 1015.9 |
| 20260507050559 | 43 | 11 | 0.0 | 0.0 | 0.00 | 0.00 | 0.00 | 92 | 1015.9 |
| 20260507050057 | 43 | 11 | 0.0 | 0.0 | 0.00 | 0.00 | 0.00 | 92 | 1015.9 |
| 20260507045555 | 43 | 11 | 0.0 | 1.0 | 0.00 | 0.00 | 0.00 | 92 | 1015.8 |
| 20260507045053 | 42 | 11 | 0.0 | 1.0 | 0.00 | 0.00 | 0.00 | 92 | 1015.7 |
| 20260507044552 | 42 | 11 | 0.0 | 0.0 | 0.00 | 0.00 | 0.00 | 91 | 1015.6 |
| 20260507044055 | 42 | 11 | 0.0 | 0.0 | 0.00 | 0.00 | 0.00 | 91 | 1015.7 |
| 20260507043551 | 42 | 11 | 0.0 | 0.0 | 0.00 | 0.00 | 0.00 | 91 | 1015.6 |
| 20260507043051 | 42 | 11 | 0.0 | 1.0 | 0.00 | 0.00 | 0.00 | 91 | 1015.6 |
| 20260507042551 | 42 | 11 | 0.0 | 0.0 | 0.00 | 0.00 | 0.00 | 91 | 1015.5 |
| 20260507042050 | 41 | 11 | 0.0 | 0.0 | 0.00 | 0.00 | 0.00 | 90 | 1015.5 |
| 20260507041550 | 41 | 11 | 0.0 | 0.0 | 0.00 | 0.00 | 0.00 | 90 | 1015.5 |
| 20260507041050 | 41 | 11 | 0.0 | 0.0 | 0.00 | 0.00 | 0.00 | 90 | 1015.5 |
| 20260507040548 | 41 | 11 | 0.0 | 0.0 | 0.00 | 0.00 | 0.00 | 90 | 1015.4 |
| 20260507040047 | 41 | 11 | 0.0 | 0.0 | 0.00 | 0.00 | 0.00 | 89 | 1015.4 |
| 20260507035546 | 42 | 11 | 0.0 | 0.0 | 0.00 | 0.00 | 0.00 | 89 | 1015.4 |
| 20260507035047 | 42 | 11 | 0.0 | 0.0 | 0.00 | 0.00 | 0.00 | 89 | 1015.4 |
| 20260507034547 | 42 | 11 | 0.0 | 0.0 | 0.00 | 0.00 | 0.00 | 89 | 1015.3 |
| 20260507034045 | 42 | 11 | 0.0 | 0.0 | 0.00 | 0.00 | 0.00 | 89 | 1015.3 |
| 20260507033547 | 42 | 11 | 0.0 | 0.0 | 0.00 | 0.00 | 0.00 | 88 | 1015.2 |
| 20260507033043 | 43 | 11 | 0.0 | 0.0 | 0.00 | 0.00 | 0.00 | 89 | 1015.2 |
| 20260507032545 | 43 | 11 | 0.0 | 0.0 | 0.00 | 0.00 | 0.00 | 88 | 1015.2 |
| 20260507032046 | 43 | 11 | 0.0 | 0.0 | 0.00 | 0.00 | 0.00 | 88 | 1015.2 |
| 20260507031541 | 43 | 11 | 0.0 | 0.0 | 0.00 | 0.00 | 0.00 | 88 | 1015.2 |
| 20260507031044 | 43 | 11 | 0.0 | 0.0 | 0.00 | 0.00 | 0.00 | 88 | 1015.1 |
| 20260507030540 | 43 | 11 | 0.0 | 1.0 | 0.00 | 0.00 | 0.00 | 87 | 1015.1 |
| 20260507030040 | 43 | 11 | 0.0 | 1.0 | 0.00 | 0.00 | 0.00 | 87 | 1015.1 |
| 20260507025538 | 43 | 11 | 0.0 | 0.0 | 0.00 | 0.00 | 0.00 | 86 | 1015.1 |
| 20260507025041 | 43 | 11 | 0.0 | 0.0 | 0.00 | 0.00 | 0.00 | 86 | 1015.0 |
| 20260507024537 | 44 | 11 | 0.0 | 0.0 | 0.00 | 0.00 | 0.00 | 86 | 1015.1 |
| 20260507024038 | 44 | 11 | 0.0 | 0.0 | 0.00 | 0.00 | 0.00 | 86 | 1015.1 |
| 20260507023544 | 44 | 11 | 0.0 | 0.0 | 0.00 | 0.00 | 0.00 | 86 | 1015.1 |
| 20260507023040 | 44 | 11 | 0.0 | 0.0 | 0.00 | 0.00 | 0.00 | 86 | 1015.0 |
| 20260507022533 | 45 | 11 | 0.0 | 0.0 | 0.00 | 0.00 | 0.00 | 86 | 1015.0 |
| 20260507022034 | 45 | 11 | 0.0 | 0.0 | 0.00 | 0.00 | 0.00 | 85 | 1015.0 |
| 20260507021532 | 45 | 11 | 0.0 | 0.0 | 0.00 | 0.00 | 0.00 | 85 | 1015.0 |
| 20260507021033 | 45 | 11 | 0.0 | 0.0 | 0.00 | 0.00 | 0.00 | 85 | 1015.0 |
| 20260507020531 | 45 | 11 | 0.0 | 0.0 | 0.00 | 0.00 | 0.00 | 85 | 1014.9 |
| 20260507020029 | 46 | 11 | 0.0 | 0.0 | 0.00 | 0.00 | 0.00 | 84 | 1014.9 |
| 20260507015528 | 46 | 11 | 0.0 | 0.0 | 0.00 | 0.00 | 0.00 | 84 | 1014.7 |
| 20260507015028 | 46 | 11 | 0.0 | 0.0 | 0.00 | 0.00 | 0.00 | 84 | 1014.7 |
| 20260507014538 | 46 | 11 | 0.0 | 0.0 | 0.00 | 0.00 | 0.00 | 84 | 1014.6 |
| 20260507014027 | 46 | 299 | 0.0 | 2.0 | 0.00 | 0.00 | 0.00 | 84 | 1014.6 |
| 20260507013526 | 46 | 297 | 0.0 | 2.0 | 0.00 | 0.00 | 0.00 | 84 | 1014.7 |
| 20260507013027 | 46 | 342 | 0.0 | 3.0 | 0.00 | 0.00 | 0.00 | 83 | 1014.6 |
| 20260507012525 | 46 | 298 | 0.0 | 3.0 | 0.00 | 0.00 | 0.00 | 83 | 1014.7 |
| 20260507012025 | 46 | 317 | 0.0 | 3.0 | 0.00 | 0.00 | 0.00 | 83 | 1014.7 |
| 20260507011527 | 47 | 331 | 0.0 | 3.0 | 0.00 | 0.00 | 0.00 | 83 | 1014.6 |
| 20260507011023 | 47 | 299 | 1.0 | 3.0 | 0.00 | 0.00 | 0.00 | 83 | 1014.6 |
| 20260507010526 | 47 | 28 | 0.0 | 4.0 | 0.00 | 0.00 | 0.00 | 82 | 1014.6 |
| 20260507010022 | 47 | 305 | 1.0 | 4.0 | 0.00 | 0.00 | 0.00 | 82 | 1014.6 |
| 20260507005622 | 47 | 304 | 1.0 | 3.0 | 0.00 | 0.00 | 0.00 | 82 | 1014.6 |
| 20260507005021 | 47 | 36 | 1.0 | 4.0 | 0.00 | 0.00 | 0.00 | 82 | 1014.6 |
| 20260507004532 | 47 | 37 | 0.0 | 3.0 | 0.00 | 0.00 | 0.00 | 82 | 1014.5 |
| 20260507004020 | 47 | 329 | 0.0 | 4.0 | 0.00 | 0.00 | 0.00 | 82 | 1014.5 |
| 20260507003521 | 47 | 48 | 1.0 | 5.0 | 0.00 | 0.00 | 0.00 | 82 | 1014.5 |
| 20260507003019 | 47 | 331 | 2.0 | 5.0 | 0.00 | 0.00 | 0.00 | 82 | 1014.4 |
| 20260507002519 | 47 | 314 | 1.0 | 4.0 | 0.00 | 0.00 | 0.00 | 82 | 1014.5 |
| 20260507002019 | 47 | 67 | 1.0 | 4.0 | 0.00 | 0.00 | 0.00 | 82 | 1014.5 |
| 20260507001524 | 47 | 339 | 1.0 | 5.0 | 0.00 | 0.00 | 0.00 | 82 | 1014.5 |
| 20260507001017 | 47 | 27 | 2.0 | 5.0 | 0.00 | 0.00 | 0.00 | 82 | 1014.4 |
| 20260507000517 | 47 | 323 | 1.0 | 5.0 | 0.00 | 0.00 | 0.00 | 82 | 1014.4 |
| 20260507000024 | 47 | 59 | 1.0 | 5.0 | 0.00 | 0.00 | 0.00 | 82 | 1014.4 |
| 20260506235516 | 48 | 323 | 1.0 | 8.0 | 0.00 | 0.00 | 0.00 | 82 | 1014.4 |
| 20260506235015 | 48 | 298 | 2.0 | 8.0 | 0.00 | 0.00 | 0.00 | 82 | 1014.4 |
| 20260506234521 | 48 | 40 | 1.0 | 4.0 | 0.00 | 0.00 | 0.00 | 82 | 1014.4 |
| 20260506234015 | 48 | 71 | 1.0 | 4.0 | 0.00 | 0.00 | 0.00 | 82 | 1014.4 |
| 20260506233515 | 48 | 290 | 1.0 | 5.0 | 0.00 | 0.00 | 0.00 | 82 | 1014.4 |
| 20260506233014 | 48 | 90 | 1.0 | 5.0 | 0.00 | 0.00 | 0.00 | 82 | 1014.5 |
| 20260506232514 | 48 | 90 | 1.0 | 7.0 | 0.00 | 0.00 | 0.00 | 82 | 1014.4 |
| 20260506232013 | 48 | 41 | 2.0 | 7.0 | 0.00 | 0.00 | 0.00 | 82 | 1014.4 |
| 20260506231528 | 48 | 10 | 3.0 | 6.0 | 0.00 | 0.00 | 0.00 | 82 | 1014.4 |
| 20260506231013 | 48 | 26 | 2.0 | 4.0 | 0.00 | 0.00 | 0.00 | 82 | 1014.4 |
| 20260506230513 | 48 | 19 | 0.0 | 4.0 | 0.00 | 0.00 | 0.00 | 82 | 1014.4 |
| 20260506230011 | 48 | 295 | 1.0 | 5.0 | 0.00 | 0.00 | 0.00 | 82 | 1014.4 |
| 20260506225510 | 48 | 43 | 1.0 | 6.0 | 0.00 | 0.00 | 0.00 | 82 | 1014.3 |
| 20260506225010 | 48 | 74 | 2.0 | 5.0 | 0.00 | 0.00 | 0.00 | 82 | 1014.3 |
| 20260506224509 | 49 | 304 | 1.0 | 4.0 | 0.00 | 0.00 | 0.00 | 82 | 1014.3 |
| 20260506224008 | 49 | 30 | 1.0 | 5.0 | 0.00 | 0.00 | 0.00 | 82 | 1014.3 |
| 20260506223507 | 49 | 304 | 2.0 | 5.0 | 0.00 | 0.00 | 0.00 | 82 | 1014.2 |
| 20260506223006 | 49 | 351 | 2.0 | 5.0 | 0.00 | 0.00 | 0.00 | 82 | 1014.2 |
| 20260506222606 | 49 | 64 | 1.0 | 5.0 | 0.00 | 0.00 | 0.00 | 81 | 1014.2 |
| 20260506222006 | 49 | 39 | 2.0 | 6.0 | 0.00 | 0.00 | 0.00 | 81 | 1014.2 |
| 20260506221505 | 49 | 342 | 2.0 | 8.0 | 0.00 | 0.00 | 0.00 | 81 | 1014.1 |
| 20260506221004 | 49 | 311 | 2.0 | 8.0 | 0.00 | 0.00 | 0.00 | 80 | 1014.0 |
| 20260506220504 | 49 | 311 | 2.0 | 5.0 | 0.00 | 0.00 | 0.00 | 80 | 1014.0 |
| 20260506220003 | 50 | 345 | 1.0 | 5.0 | 0.00 | 0.00 | 0.00 | 80 | 1014.0 |
| 20260506215501 | 50 | 360 | 1.0 | 4.0 | 0.00 | 0.00 | 0.00 | 79 | 1014.0 |
| 20260506215003 | 50 | 296 | 0.0 | 4.0 | 0.00 | 0.00 | 0.00 | 79 | 1014.0 |
| 20260506214601 | 50 | 327 | 1.0 | 6.0 | 0.00 | 0.00 | 0.00 | 78 | 1013.9 |
| 20260506214100 | 50 | 350 | 2.0 | 6.0 | 0.00 | 0.00 | 0.00 | 77 | 1013.9 |
| 20260506213602 | 50 | 15 | 1.0 | 5.0 | 0.00 | 0.00 | 0.00 | 77 | 1013.8 |
| 20260506213136 | 50 | 285 | 2.0 | 6.0 | 0.00 | 0.00 | 0.00 | 76 | 1013.7 |
| 20260506212558 | 51 | 50 | 1.0 | 4.0 | 0.00 | 0.00 | 0.00 | 76 | 1013.7 |
| 20260506212059 | 51 | 292 | 1.0 | 4.0 | 0.00 | 0.00 | 0.00 | 76 | 1013.7 |
| 20260506211616 | 51 | 312 | 1.0 | 5.0 | 0.00 | 0.00 | 0.00 | 75 | 1013.7 |
| 20260506211057 | 51 | 290 | 0.0 | 5.0 | 0.00 | 0.00 | 0.00 | 75 | 1013.6 |
| 20260506210556 | 51 | 307 | 0.0 | 5.0 | 0.00 | 0.00 | 0.00 | 75 | 1013.6 |
| 20260506205555 | 51 | 293 | 0.0 | 4.0 | 0.00 | 0.00 | 0.00 | 74 | 1013.5 |
| 20260506205054 | 51 | 325 | 0.0 | 4.0 | 0.00 | 0.00 | 0.00 | 74 | 1013.5 |
| 20260506204558 | 52 | 302 | 1.0 | 5.0 | 0.00 | 0.00 | 0.00 | 74 | 1013.5 |
| 20260506204053 | 52 | 290 | 2.0 | 5.0 | 0.00 | 0.00 | 0.00 | 73 | 1013.4 |
| 20260506203554 | 52 | 344 | 1.0 | 5.0 | 0.00 | 0.00 | 0.00 | 73 | 1013.4 |
| 20260506203054 | 52 | 38 | 1.0 | 5.0 | 0.00 | 0.00 | 0.00 | 73 | 1013.3 |
| 20260506202555 | 52 | 51 | 2.0 | 5.0 | 0.00 | 0.00 | 0.00 | 72 | 1013.3 |
| 20260506202057 | 52 | 302 | 1.0 | 5.0 | 0.00 | 0.00 | 0.00 | 72 | 1013.3 |
| 20260506201600 | 52 | 277 | 1.0 | 6.0 | 0.00 | 0.00 | 0.00 | 71 | 1013.2 |
| 20260506201052 | 53 | 327 | 2.0 | 10.0 | 0.00 | 0.00 | 0.00 | 71 | 1013.2 |
| 20260506200551 | 53 | 37 | 2.0 | 10.0 | 0.00 | 0.00 | 0.00 | 70 | 1013.2 |
| 20260506200058 | 53 | 309 | 0.0 | 4.0 | 0.00 | 0.00 | 0.00 | 69 | 1013.1 |
| 20260506195550 | 53 | 331 | 1.0 | 8.0 | 0.00 | 0.00 | 0.00 | 68 | 1013.0 |
| 20260506195049 | 53 | 271 | 1.0 | 8.0 | 0.00 | 0.00 | 0.00 | 67 | 1012.9 |
| 20260506194558 | 53 | 292 | 2.0 | 8.0 | 0.00 | 0.00 | 0.00 | 66 | 1012.9 |
| 20260506194052 | 53 | 306 | 2.0 | 8.0 | 0.00 | 0.00 | 0.00 | 66 | 1012.9 |
| 20260506193552 | 53 | 5 | 2.0 | 6.0 | 0.00 | 0.00 | 0.00 | 66 | 1012.8 |
| 20260506193047 | 53 | 338 | 2.0 | 7.0 | 0.00 | 0.00 | 0.00 | 66 | 1012.8 |
| 20260506192551 | 53 | 322 | 2.0 | 9.0 | 0.00 | 0.00 | 0.00 | 66 | 1012.7 |
| 20260506192046 | 53 | 304 | 2.0 | 9.0 | 0.00 | 0.00 | 0.00 | 65 | 1012.6 |
| 20260506191548 | 54 | 350 | 3.0 | 6.0 | 0.00 | 0.00 | 0.00 | 65 | 1012.6 |
| 20260506191046 | 54 | 32 | 1.0 | 6.0 | 0.00 | 0.00 | 0.00 | 65 | 1012.5 |
| 20260506190544 | 54 | 298 | 1.0 | 6.0 | 0.00 | 0.00 | 0.00 | 64 | 1012.4 |
| 20260506190043 | 54 | 300 | 2.0 | 8.0 | 0.00 | 0.00 | 0.00 | 64 | 1012.3 |
| 20260506185543 | 54 | 295 | 3.0 | 9.0 | 0.00 | 0.00 | 0.00 | 64 | 1012.3 |
| 20260506185045 | 54 | 292 | 2.0 | 10.0 | 0.00 | 0.00 | 0.00 | 65 | 1012.2 |
| 20260506184541 | 54 | 338 | 3.0 | 10.0 | 0.00 | 0.00 | 0.00 | 65 | 1012.1 |
| 20260506184041 | 55 | 279 | 2.0 | 9.0 | 0.00 | 0.00 | 0.00 | 65 | 1012.1 |
| 20260506183542 | 55 | 355 | 2.0 | 9.0 | 0.00 | 0.00 | 0.00 | 66 | 1012.0 |
| 20260506183055 | 55 | 268 | 2.0 | 5.0 | 0.00 | 0.00 | 0.00 | 65 | 1011.9 |
| 20260506182539 | 55 | 280 | 1.0 | 8.0 | 0.00 | 0.00 | 0.00 | 66 | 1011.9 |
| 20260506182042 | 55 | 289 | 3.0 | 9.0 | 0.00 | 0.00 | 0.00 | 65 | 1011.9 |
| 20260506181539 | 55 | 74 | 3.0 | 9.0 | 0.00 | 0.00 | 0.00 | 65 | 1011.8 |
| 20260506181037 | 55 | 325 | 3.0 | 8.0 | 0.00 | 0.00 | 0.00 | 65 | 1011.8 |
| 20260506180539 | 56 | 330 | 2.0 | 7.0 | 0.00 | 0.00 | 0.00 | 65 | 1011.8 |
| 20260506180040 | 56 | 90 | 2.0 | 10.0 | 0.00 | 0.00 | 0.00 | 65 | 1011.6 |
| 20260506175538 | 56 | 293 | 3.0 | 10.0 | 0.00 | 0.00 | 0.00 | 65 | 1011.6 |
| 20260506175035 | 56 | 301 | 2.0 | 7.0 | 0.00 | 0.00 | 0.00 | 65 | 1011.5 |
| 20260506174539 | 55 | 85 | 3.0 | 7.0 | 0.00 | 0.00 | 0.00 | 65 | 1011.5 |
| 20260506174035 | 55 | 92 | 2.0 | 5.0 | 0.00 | 0.00 | 0.00 | 65 | 1011.4 |
| 20260506173533 | 55 | 56 | 2.0 | 6.0 | 0.00 | 0.00 | 0.00 | 64 | 1011.3 |
| 20260506173034 | 55 | 13 | 1.0 | 6.0 | 0.00 | 0.00 | 0.00 | 64 | 1011.3 |
| 20260506172532 | 55 | 57 | 1.0 | 4.0 | 0.00 | 0.00 | 0.00 | 64 | 1011.2 |
| 20260506172032 | 55 | 300 | 0.0 | 6.0 | 0.00 | 0.00 | 0.00 | 63 | 1011.1 |
| 20260506171537 | 55 | 338 | 0.0 | 6.0 | 0.00 | 0.00 | 0.00 | 63 | 1011.1 |
| 20260506171033 | 55 | 58 | 2.0 | 7.0 | 0.00 | 0.00 | 0.00 | 64 | 1011.2 |
| 20260506170531 | 55 | 46 | 1.0 | 8.0 | 0.00 | 0.00 | 0.00 | 63 | 1011.1 |
| 20260506170034 | 56 | 68 | 2.0 | 8.0 | 0.00 | 0.00 | 0.00 | 63 | 1011.1 |
| 20260506165532 | 56 | 79 | 2.0 | 6.0 | 0.00 | 0.00 | 0.00 | 61 | 1011.1 |
| 20260506165031 | 56 | 132 | 1.0 | 9.0 | 0.00 | 0.00 | 0.00 | 61 | 1011.1 |
| 20260506164531 | 56 | 36 | 0.0 | 6.0 | 0.00 | 0.00 | 0.00 | 61 | 1011.1 |
| 20260506164034 | 56 | 82 | 1.0 | 6.0 | 0.00 | 0.00 | 0.00 | 60 | 1011.0 |
| 20260506163530 | 56 | 99 | 1.0 | 11.0 | 0.00 | 0.00 | 0.00 | 59 | 1011.0 |
| 20260506163033 | 56 | 67 | 2.0 | 11.0 | 0.00 | 0.00 | 0.00 | 58 | 1011.0 |
| 20260506162529 | 56 | 46 | 2.0 | 5.0 | 0.00 | 0.00 | 0.00 | 58 | 1010.9 |
| 20260506162033 | 56 | 279 | 2.0 | 5.0 | 0.00 | 0.00 | 0.00 | 57 | 1010.9 |
| 20260506161530 | 56 | 328 | 2.0 | 5.0 | 0.00 | 0.00 | 0.00 | 57 | 1010.8 |
| 20260506161029 | 56 | 60 | 1.0 | 5.0 | 0.00 | 0.00 | 0.00 | 56 | 1010.8 |
| 20260506160531 | 56 | 344 | 2.0 | 10.0 | 0.00 | 0.00 | 0.00 | 56 | 1010.8 |
| 20260506160030 | 57 | 43 | 1.0 | 10.0 | 0.00 | 0.00 | 0.00 | 56 | 1010.8 |
| 20260506155530 | 57 | 24 | 2.0 | 9.0 | 0.00 | 0.00 | 0.00 | 55 | 1010.9 |
| 20260506155029 | 57 | 54 | 2.0 | 8.0 | 0.00 | 0.00 | 0.00 | 54 | 1010.9 |
| 20260506154532 | 57 | 71 | 2.0 | 8.0 | 0.00 | 0.00 | 0.00 | 53 | 1010.8 |
| 20260506154029 | 57 | 265 | 1.0 | 9.0 | 0.00 | 0.00 | 0.00 | 52 | 1010.8 |
| 20260506153528 | 57 | 62 | 2.0 | 9.0 | 0.00 | 0.00 | 0.00 | 51 | 1010.9 |
| 20260506153028 | 57 | 19 | 1.0 | 9.0 | 0.00 | 0.00 | 0.00 | 50 | 1010.9 |
| 20260506152528 | 57 | 36 | 3.0 | 7.0 | 0.00 | 0.00 | 0.00 | 50 | 1010.9 |
| 20260506152030 | 57 | 49 | 1.0 | 5.0 | 0.00 | 0.00 | 0.00 | 51 | 1010.8 |
| 20260506151529 | 57 | 54 | 1.0 | 6.0 | 0.00 | 0.00 | 0.00 | 50 | 1010.8 |
| 20260506151029 | 57 | 113 | 3.0 | 6.0 | 0.00 | 0.00 | 0.00 | 50 | 1010.7 |
| 20260506150527 | 57 | 57 | 2.0 | 9.0 | 0.00 | 0.00 | 0.00 | 49 | 1010.7 |
| 20260506150027 | 58 | 71 | 2.0 | 7.0 | 0.00 | 0.00 | 0.00 | 49 | 1010.8 |
| 20260506145529 | 58 | 321 | 2.0 | 6.0 | 0.00 | 0.00 | 0.00 | 48 | 1010.7 |
| 20260506145026 | 58 | 84 | 1.0 | 7.0 | 0.00 | 0.00 | 0.00 | 49 | 1010.7 |
| 20260506144526 | 58 | 11 | 1.0 | 10.0 | 0.00 | 0.00 | 0.00 | 49 | 1010.6 |
| 20260506144028 | 59 | 360 | 2.0 | 10.0 | 0.00 | 0.00 | 0.00 | 48 | 1010.6 |
| 20260506143526 | 59 | 24 | 2.0 | 9.0 | 0.00 | 0.00 | 0.00 | 48 | 1010.6 |
| 20260506143031 | 59 | 77 | 3.0 | 9.0 | 0.00 | 0.00 | 0.00 | 47 | 1010.7 |
| 20260506142525 | 59 | 98 | 2.0 | 11.0 | 0.00 | 0.00 | 0.00 | 49 | 1010.5 |
| 20260506142029 | 59 | 36 | 2.0 | 11.0 | 0.00 | 0.00 | 0.00 | 49 | 1010.5 |
| 20260506141525 | 59 | 62 | 3.0 | 10.0 | 0.00 | 0.00 | 0.00 | 50 | 1010.6 |
| 20260506141029 | 59 | 71 | 3.0 | 10.0 | 0.00 | 0.00 | 0.00 | 49 | 1010.5 |
| 20260506140525 | 59 | 79 | 4.0 | 12.0 | 0.00 | 0.00 | 0.00 | 49 | 1010.6 |
| 20260506140024 | 59 | 40 | 4.0 | 12.0 | 0.00 | 0.00 | 0.00 | 49 | 1010.5 |
| 20260506135524 | 59 | 302 | 2.0 | 12.0 | 0.00 | 0.00 | 0.00 | 48 | 1010.6 |
| 20260506135024 | 60 | 70 | 1.0 | 14.0 | 0.00 | 0.00 | 0.00 | 48 | 1010.4 |
| 20260506134524 | 60 | 44 | 3.0 | 14.0 | 0.00 | 0.00 | 0.00 | 48 | 1010.5 |
| 20260506134024 | 59 | 305 | 2.0 | 6.0 | 0.00 | 0.00 | 0.00 | 49 | 1010.5 |
| 20260506133526 | 59 | 335 | 2.0 | 9.0 | 0.00 | 0.00 | 0.00 | 49 | 1010.4 |
| 20260506133025 | 60 | 36 | 3.0 | 9.0 | 0.00 | 0.00 | 0.00 | 49 | 1010.5 |
| 20260506132525 | 60 | 58 | 2.0 | 7.0 | 0.00 | 0.00 | 0.00 | 49 | 1010.5 |
| 20260506132027 | 60 | 75 | 1.0 | 9.0 | 0.00 | 0.00 | 0.00 | 48 | 1010.4 |
| 20260506131523 | 61 | 73 | 2.0 | 8.0 | 0.00 | 0.00 | 0.00 | 47 | 1010.2 |
| 20260506131023 | 61 | 40 | 2.0 | 10.0 | 0.00 | 0.00 | 0.00 | 49 | 1010.3 |
| 20260506130523 | 61 | 71 | 3.0 | 10.0 | 0.00 | 0.00 | 0.00 | 48 | 1010.3 |
| 20260506130024 | 61 | 133 | 1.0 | 10.0 | 0.00 | 0.00 | 0.00 | 48 | 1010.2 |
| 20260506125522 | 61 | 302 | 3.0 | 10.0 | 0.00 | 0.00 | 0.00 | 47 | 1010.3 |
| 20260506125021 | 61 | 58 | 2.0 | 12.0 | 0.00 | 0.00 | 0.00 | 49 | 1010.3 |
| 20260506124518 | 60 | 292 | 3.0 | 12.0 | 0.00 | 0.00 | 0.00 | 47 | 1010.3 |
| 20260506124018 | 60 | 247 | 4.0 | 11.0 | 0.00 | 0.00 | 0.00 | 48 | 1010.3 |
| 20260506123517 | 60 | 61 | 2.0 | 14.0 | 0.00 | 0.00 | 0.00 | 49 | 1010.2 |
| 20260506123018 | 60 | 296 | 2.0 | 10.0 | 0.00 | 0.00 | 0.00 | 51 | 1010.3 |
| 20260506122515 | 60 | 114 | 2.0 | 10.0 | 0.00 | 0.00 | 0.00 | 50 | 1010.3 |
| 20260506122014 | 59 | 74 | 4.0 | 11.0 | 0.00 | 0.00 | 0.00 | 50 | 1010.3 |
| 20260506121521 | 59 | 127 | 3.0 | 13.0 | 0.00 | 0.00 | 0.00 | 50 | 1010.2 |
| 20260506121013 | 59 | 32 | 2.0 | 8.0 | 0.00 | 0.00 | 0.00 | 50 | 1010.3 |
| 20260506120514 | 59 | 269 | 3.0 | 12.0 | 0.00 | 0.00 | 0.00 | 51 | 1010.3 |
| 20260506120012 | 59 | 24 | 4.0 | 12.0 | 0.00 | 0.00 | 0.00 | 51 | 1010.2 |
| 20260506115512 | 59 | 19 | 3.0 | 11.0 | 0.00 | 0.00 | 0.00 | 52 | 1010.2 |
| 20260506115011 | 59 | 54 | 3.0 | 9.0 | 0.00 | 0.00 | 0.00 | 51 | 1010.3 |
| 20260506114511 | 59 | 311 | 3.0 | 12.0 | 0.00 | 0.00 | 0.00 | 50 | 1010.3 |
| 20260506114011 | 59 | 340 | 3.0 | 12.0 | 0.00 | 0.00 | 0.00 | 51 | 1010.3 |
| 20260506113510 | 58 | 82 | 3.0 | 15.0 | 0.00 | 0.00 | 0.00 | 50 | 1010.3 |
| 20260506113018 | 58 | 70 | 5.0 | 15.0 | 0.00 | 0.00 | 0.00 | 49 | 1010.3 |
| 20260506112510 | 58 | 44 | 4.0 | 13.0 | 0.00 | 0.00 | 0.00 | 52 | 1010.3 |
| 20260506112013 | 58 | 331 | 3.0 | 18.0 | 0.00 | 0.00 | 0.00 | 54 | 1010.2 |
| 20260506111509 | 58 | 51 | 4.0 | 18.0 | 0.00 | 0.00 | 0.00 | 56 | 1010.3 |
| 20260506111013 | 58 | 118 | 4.0 | 11.0 | 0.00 | 0.00 | 0.00 | 59 | 1010.2 |
| 20260506110509 | 58 | 25 | 3.0 | 11.0 | 0.00 | 0.00 | 0.00 | 59 | 1010.2 |
| 20260506110011 | 59 | 49 | 2.0 | 9.0 | 0.00 | 0.00 | 0.00 | 58 | 1010.1 |
| 20260506105506 | 58 | 331 | 2.0 | 9.0 | 0.00 | 0.00 | 0.00 | 55 | 1010.2 |
| 20260506105005 | 58 | 54 | 3.0 | 11.0 | 0.00 | 0.00 | 0.00 | 62 | 1010.3 |
| 20260506104505 | 58 | 100 | 2.0 | 11.0 | 0.00 | 0.00 | 0.00 | 61 | 1010.2 |
| 20260506104005 | 58 | 136 | 3.0 | 10.0 | 0.00 | 0.00 | 0.00 | 60 | 1010.4 |
| 20260506103504 | 57 | 46 | 2.0 | 10.0 | 0.00 | 0.00 | 0.00 | 60 | 1010.2 |
| 20260506103010 | 57 | 58 | 4.0 | 10.0 | 0.00 | 0.00 | 0.00 | 60 | 1010.2 |
| 20260506102502 | 57 | 16 | 2.0 | 10.0 | 0.00 | 0.00 | 0.00 | 61 | 1010.2 |
| 20260506102102 | 57 | 26 | 4.0 | 10.0 | 0.00 | 0.00 | 0.00 | 63 | 1010.2 |
| 20260506101600 | 57 | 355 | 4.0 | 10.0 | 0.00 | 0.00 | 0.00 | 65 | 1010.3 |
| 20260506101058 | 57 | 115 | 4.0 | 10.0 | 0.00 | 0.00 | 0.00 | 67 | 1010.2 |
| 20260506100558 | 57 | 72 | 2.0 | 9.0 | 0.00 | 0.00 | 0.00 | 68 | 1010.1 |
| 20260506100056 | 56 | 306 | 3.0 | 9.0 | 0.00 | 0.00 | 0.00 | 69 | 1010.1 |
| 20260506095555 | 57 | 124 | 2.0 | 11.0 | 0.00 | 0.00 | 0.00 | 69 | 1010.1 |
| 20260506095057 | 57 | 57 | 4.0 | 12.0 | 0.00 | 0.00 | 0.00 | 69 | 1010.1 |
| 20260506094558 | 57 | 127 | 5.0 | 12.0 | 0.00 | 0.00 | 0.00 | 69 | 1010.0 |
| 20260506094052 | 56 | 51 | 2.0 | 9.0 | 0.00 | 0.00 | 0.00 | 71 | 1010.0 |
| 20260506093552 | 56 | 55 | 2.0 | 6.0 | 0.00 | 0.00 | 0.00 | 71 | 1010.0 |
| 20260506093052 | 56 | 277 | 2.0 | 7.0 | 0.00 | 0.00 | 0.00 | 71 | 1010.0 |
| 20260506092551 | 56 | 32 | 2.0 | 10.0 | 0.00 | 0.00 | 0.00 | 68 | 1010.0 |
| 20260506092052 | 56 | 295 | 2.0 | 8.0 | 0.00 | 0.00 | 0.00 | 70 | 1010.0 |
| 20260506091552 | 56 | 36 | 1.0 | 9.0 | 0.00 | 0.00 | 0.00 | 72 | 1010.0 |
| 20260506091049 | 55 | 24 | 3.0 | 9.0 | 0.00 | 0.00 | 0.00 | 70 | 1009.9 |
| 20260506090549 | 56 | 32 | 3.0 | 7.0 | 0.00 | 0.00 | 0.00 | 70 | 1009.9 |
| 20260506090054 | 56 | 68 | 1.0 | 8.0 | 0.00 | 0.00 | 0.00 | 71 | 1009.9 |
| 20260506085549 | 56 | 335 | 2.0 | 10.0 | 0.00 | 0.00 | 0.00 | 72 | 1009.9 |
| 20260506085049 | 56 | 68 | 3.0 | 10.0 | 0.00 | 0.00 | 0.00 | 71 | 1009.9 |
| 20260506084601 | 56 | 45 | 2.0 | 8.0 | 0.00 | 0.00 | 0.00 | 72 | 1009.9 |
| 20260506084047 | 56 | 329 | 2.0 | 7.0 | 0.00 | 0.00 | 0.00 | 73 | 1009.8 |
| 20260506083546 | 56 | 310 | 2.0 | 9.0 | 0.00 | 0.00 | 0.00 | 73 | 1009.8 |
| 20260506083046 | 56 | 293 | 3.0 | 9.0 | 0.00 | 0.00 | 0.00 | 73 | 1009.8 |
| 20260506082544 | 56 | 27 | 3.0 | 9.0 | 0.00 | 0.00 | 0.00 | 73 | 1009.8 |
| 20260506082045 | 56 | 39 | 3.0 | 11.0 | 0.00 | 0.00 | 0.00 | 74 | 1009.7 |
| 20260506081544 | 56 | 44 | 4.0 | 11.0 | 0.00 | 0.00 | 0.00 | 74 | 1009.8 |
| 20260506081043 | 56 | 59 | 3.0 | 10.0 | 0.00 | 0.00 | 0.00 | 74 | 1009.8 |
| 20260506080545 | 56 | 69 | 1.0 | 11.0 | 0.00 | 0.00 | 0.00 | 75 | 1009.7 |
| 20260506073033 | 53 | 348 | 1.0 | 8.0 | 0.00 | 0.00 | 0.00 | 79 | 1009.7 |
| 20260506072534 | 53 | 294 | 2.0 | 10.0 | 0.00 | 0.00 | 0.00 | 79 | 1009.8 |
| 20260506072032 | 53 | 348 | 2.0 | 10.0 | 0.00 | 0.00 | 0.00 | 79 | 1009.7 |
| 20260506071532 | 53 | 47 | 4.0 | 10.0 | 0.00 | 0.00 | 0.00 | 79 | 1009.7 |
| 20260506071036 | 53 | 336 | 2.0 | 6.0 | 0.00 | 0.00 | 0.00 | 81 | 1009.6 |
| 20260506070530 | 53 | 327 | 2.0 | 6.0 | 0.00 | 0.00 | 0.00 | 81 | 1009.7 |